Weather History for CYUS - February, 2013

Change the Weather History Date:

Sunday, February 10, 2013

  Actual Average Record
Temperature  
Mean Temperature -30 °F -  
Max Temperature -14 °F - - ()
Min Temperature -47 °F - - ()
Degree Days  
Heating Degree Days 96    
Moisture  
Dew Point -    
Average Humidity    
Maximum Humidity    
Minimum Humidity    
Precipitation  
Precipitation 0.00 in - - ()
Sea Level Pressure  
Sea Level Pressure 30.02 in    
Wind  
Wind Speed 10 mph ()    
Max Wind Speed 21 mph    
Max Gust Speed -    
Visibility 4.2 miles    
Events      
T = Trace of Precipitation, MM = Missing Value Source: Averaged Metar Reports

Daily Weather History Graph

Daily Weather History Graph

Search for Another Location

Airport or City:

Trip Planner

Search our weather history database for the weather conditions in past years. The results will help you decide how hot, cold, wet, or windy it might be!

Date:

Astronomy

Feb. 10, 2013 Rise Set
Actual Time 8:58 AM CST 3:59 PM CST
Civil Twilight 7:50 AM CST 5:06 PM CST
Nautical Twilight 6:41 AM CST 6:16 PM CST
Astronomical Twilight 5:35 AM CST 7:22 PM CST
Moon 8:04 AM CST (2/10) 5:47 PM CST (2/10)
Length of Visible Light 9h 15m
Length of Day
7h 00m
New Moon, 0% of the Moon is Illuminated
Feb 10
New Moon
Feb 17
First Quarter
Feb 25
Full
Mar 4
Last Quarter
Mar 11
New

Hourly Weather History & Observations

Time (CST) Temp. Windchill Dew Point Humidity Pressure Visibility Wind Dir Wind Speed Gust Speed Precip Events Conditions
12:00 AM -47 °F - - % 30.22 in 2 mi SE 6.9 mph - -  
12:00 AM -47.2 °F -69.8 °F - N/A% 30.22 in 2.4 mi SE 6.9 mph - N/A   Unknown
12:17 AM -47.2 °F -67.6 °F - N/A% 30.19 in 1.2 mi SSE 5.8 mph - N/A   Unknown
12:25 AM -47.2 °F -69.8 °F - N/A% 30.19 in 1.0 mi SSE 6.9 mph - N/A   Unknown
12:34 AM -45.4 °F -65.4 °F - N/A% 30.19 in 1.5 mi South 5.8 mph - N/A   Unknown
12:45 AM -45.4 °F -65.4 °F - N/A% 30.20 in 9.0 mi South 5.8 mph - N/A   Unknown
1:00 AM -45.4 °F -65.4 °F - N/A% 30.23 in 9.0 mi SSE 5.8 mph - N/A   Unknown
2:00 AM -45.4 °F -65.4 °F - N/A% 30.25 in 9.0 mi SSE 5.8 mph - N/A   Unknown
2:14 AM -45.4 °F -65.4 °F - N/A% 30.21 in 3.0 mi SSE 5.8 mph - N/A   Unknown
2:39 AM -47.2 °F -65.0 °F - N/A% 30.21 in 9.0 mi South 4.6 mph - N/A   Unknown
3:00 AM -46 °F - - % 30.25 in 6 mi SSE 5.8 mph - -  
3:00 AM -45.4 °F -67.6 °F - N/A% 30.25 in 6.0 mi SSE 6.9 mph - N/A   Unknown
3:03 AM -45.4 °F -65.4 °F - N/A% 30.21 in 1.4 mi South 5.8 mph - N/A   Unknown
3:13 AM -45.4 °F -65.4 °F - N/A% 30.21 in 3.5 mi SSE 5.8 mph - N/A   Unknown
4:00 AM -47.2 °F -73.4 °F - N/A% 30.24 in 9.0 mi SE 9.2 mph - N/A   Unknown
4:18 AM -47.2 °F -73.4 °F - N/A% 30.21 in 8.0 mi SE 9.2 mph - N/A   Unknown
4:20 AM -47.2 °F -73.4 °F - N/A% 30.21 in 2.5 mi SE 9.2 mph - N/A   Unknown
4:39 AM -45.4 °F -67.6 °F - N/A% 30.22 in 9.0 mi SSE 6.9 mph - N/A   Unknown
4:41 AM -45.4 °F -65.4 °F - N/A% 30.22 in 9.0 mi SSE 5.8 mph - N/A   Unknown
4:50 AM -45.4 °F -67.6 °F - N/A% 30.22 in 9.0 mi SSE 6.9 mph - N/A   Unknown
5:00 AM -45.4 °F -67.6 °F - N/A% 30.25 in 9.0 mi SE 6.9 mph - N/A   Unknown
6:00 AM -45 °F - - % 30.24 in 9 mi SE 9.2 mph - -  
7:00 AM -41.8 °F -68.2 °F - N/A% 30.24 in 8.0 mi SE 10.4 mph - N/A   Unknown
8:00 AM -41.8 °F -69.5 °F - N/A% 30.22 in 6.0 mi SE 11.5 mph - N/A   Unknown
9:00 AM -42 °F - - % 30.21 in 7 mi SE 12.7 mph - -  
9:00 AM -41.8 °F -70.7 °F - N/A% 30.21 in 8.0 mi SE 12.7 mph - N/A   Unknown
10:00 AM -40.0 °F -68.4 °F - N/A% 30.19 in 9.0 mi SE 12.7 mph - N/A   Unknown
11:00 AM -40.0 °F -68.4 °F - N/A% 30.17 in 9.0 mi ESE 12.7 mph - N/A   Unknown
12:00 PM -37 °F - - % 30.14 in 6 mi ESE 12.7 mph - -  
12:00 PM -36.4 °F -63.9 °F - N/A% 30.14 in 6.0 mi ESE 12.7 mph - N/A   Unknown
1:00 PM -34.6 °F -61.6 °F - N/A% 30.11 in 9.0 mi SE 12.7 mph - N/A   Unknown
2:00 PM -32.8 °F -59.3 °F - N/A% 30.08 in 9.0 mi ESE 12.7 mph - N/A   Unknown
3:00 PM -30 °F - - % 30.05 in 4 mi ESE 15.0 mph - -  
3:00 PM -29.2 °F -55.8 °F - N/A% 30.05 in 4.0 mi ESE 13.8 mph - N/A   Unknown
3:17 PM -29.2 °F -56.8 °F - N/A% 30.01 in 3.0 mi ESE 15.0 mph - N/A   Unknown
3:53 PM -29.2 °F -56.8 °F - N/A% 29.99 in 3.5 mi ESE 15.0 mph - N/A   Unknown
4:00 PM -29.2 °F -56.8 °F - N/A% 30.03 in 3.5 mi ESE 15.0 mph - N/A   Unknown
4:02 PM -29.2 °F -56.8 °F - N/A% 29.99 in 3.0 mi ESE 15.0 mph - N/A   Unknown
4:10 PM -27.4 °F -54.5 °F - N/A% 29.99 in 1.4 mi ESE 15.0 mph - N/A   Unknown
4:26 PM -27.4 °F -53.5 °F - N/A% 29.98 in 2.1 mi ESE 13.8 mph - N/A   Unknown
4:45 PM -25.6 °F -53.0 °F - N/A% 29.98 in 3.0 mi ESE 16.1 mph - N/A   Unknown
5:00 PM -25.6 °F -53.0 °F - N/A% 30.00 in 4.0 mi ESE 16.1 mph - N/A   Unknown
5:24 PM -25.6 °F -52.1 °F - N/A% 29.96 in 3.0 mi ESE 15.0 mph - N/A   Unknown
5:45 PM -23.8 °F -49.8 °F - N/A% 29.95 in 4.0 mi SE 15.0 mph - N/A   Unknown
5:55 PM -23.8 °F -49.8 °F - N/A% 29.94 in 3.0 mi SE 15.0 mph - N/A   Unknown
6:00 PM -24 °F - - % 29.98 in 2 mi SE 15.0 mph - -  
6:00 PM -23.8 °F -48.9 °F - N/A% 29.98 in 2.4 mi SE 13.8 mph - N/A   Unknown
6:54 PM -22.0 °F -48.4 °F - N/A% 29.91 in 1.5 mi SE 16.1 mph - N/A   Unknown
6:57 PM -22.0 °F -48.4 °F - N/A% 29.91 in 1.5 mi SE 16.1 mph - N/A   Unknown
7:00 PM -22.0 °F -48.4 °F - N/A% 29.94 in 1.5 mi SE 16.1 mph - N/A   Unknown
7:06 PM -22.0 °F -47.5 °F - N/A% 29.91 in 1.5 mi SE 15.0 mph - N/A   Unknown
7:27 PM -22.0 °F -48.4 °F - N/A% 29.90 in 3.5 mi SE 16.1 mph - N/A   Unknown
7:56 PM -23.8 °F -48.9 °F - N/A% 29.89 in 3.5 mi SE 13.8 mph - N/A   Unknown
8:00 PM -23.8 °F -48.9 °F - N/A% 29.92 in 3.5 mi SE 13.8 mph - N/A   Unknown
8:27 PM -20.2 °F -46.8 °F - N/A% 29.88 in 3.0 mi SSE 17.3 mph - N/A   Unknown
8:35 PM -18.4 °F -45.2 °F - N/A% 29.87 in 3.0 mi SSE 18.4 mph - N/A   Unknown
8:43 PM -18.4 °F -44.5 °F - N/A% 29.87 in 3.5 mi SSE 17.3 mph - N/A   Unknown
8:56 PM -16.6 °F -41.4 °F - N/A% 29.86 in 3.0 mi SE 16.1 mph - N/A   Unknown
8:58 PM -16.6 °F -42.1 °F - N/A% 29.86 in 3.0 mi SE 17.3 mph - N/A   Unknown
9:00 PM -18 °F - - % 29.89 in 3 mi SE 17.3 mph - -  
9:00 PM -16.6 °F -42.1 °F - N/A% 29.89 in 3.0 mi SE 17.3 mph - N/A   Unknown
9:02 PM -16.6 °F -42.1 °F - N/A% 29.86 in 3.0 mi SE 17.3 mph - N/A   Unknown
9:15 PM -16.6 °F -42.1 °F - N/A% 29.85 in 3.0 mi SSE 17.3 mph - N/A   Unknown
9:19 PM -16.6 °F -42.1 °F - N/A% 29.84 in 3.0 mi SSE 17.3 mph - N/A   Unknown
9:20 PM -16.6 °F -42.1 °F - N/A% 29.84 in 3.0 mi SSE 17.3 mph - N/A   Unknown
9:41 PM -16.6 °F -41.4 °F - N/A% 29.84 in 2.1 mi SE 16.1 mph - N/A   Unknown
9:52 PM -16.6 °F -40.6 °F - N/A% 29.83 in 2.6 mi SSE 15.0 mph - N/A   Unknown
10:00 PM -16.6 °F -41.4 °F - N/A% 29.86 in 3.0 mi SE 16.1 mph - N/A   Unknown
10:15 PM -16.6 °F -41.4 °F - N/A% 29.82 in 2.8 mi SSE 16.1 mph - N/A   Unknown
10:23 PM -16.6 °F -38.9 °F - N/A% 29.82 in 2.6 mi SE 12.7 mph - N/A   Unknown
10:28 PM -16.6 °F -40.6 °F - N/A% 29.81 in 2.5 mi SE 15.0 mph - N/A   Unknown
10:41 PM -14.8 °F -40.5 °F - N/A% 29.81 in 2.1 mi SSE 18.4 mph - N/A   Unknown
10:53 PM -14.8 °F -41.2 °F - N/A% 29.81 in 2.4 mi SSE 19.6 mph - N/A   Unknown
10:54 PM -14.8 °F -41.2 °F - N/A% 29.80 in 2.4 mi SE 19.6 mph - N/A   Unknown
11:00 PM -14.8 °F -41.8 °F - N/A% 29.83 in 2.2 mi SE 20.7 mph - N/A   Unknown
11:01 PM -14.8 °F -41.8 °F - N/A% 29.80 in 2.2 mi SE 20.7 mph - N/A   Unknown
11:25 PM -14.8 °F -39.8 °F - N/A% 29.79 in 2.5 mi SE 17.3 mph - N/A   Unknown
11:33 PM -14.8 °F -41.2 °F - N/A% 29.79 in 2.0 mi SE 19.6 mph - N/A   Unknown
11:34 PM -14.8 °F -41.2 °F - N/A% 29.79 in 2.0 mi SE 19.6 mph - N/A   Unknown
11:35 PM -14.8 °F -41.2 °F - N/A% 29.79 in 1.8 mi SE 19.6 mph - N/A   Unknown